Regional Weather Roundup
Issued by NWS

Home | Current Version | Previous Version | Graphics & Text | Print | Product List | Glossary On
Versions: 1 2 3 4 5 6 7 8 9 10 11 12 13 14 15 16 17 18 19 20 21 22 23 24 25 26 27 28 29 30 31 32 33 34 35 36 37 38 39 40 41 42 43 44 45 46 47 48 49 50
000
ASUS43 KDMX 011707
RWRIA

WEATHER ROUNDUP FOR IOWA
NATIONAL WEATHER SERVICE DES MOINES IA
1200 PM CDT WED APR 01 2015

NOTE: "FAIR" INDICATES FEW OR NO CLOUDS BELOW 12,000 FEET WITH NO
SIGNIFICANT WEATHER AND/OR OBSTRUCTIONS TO VISIBILITY.

* - THESE STATIONS ARE NOT NWS STATIONS...THUS NOT UNDER NWS
QUALITY CONTROL.  THEY ALSO DO NOT REPORT WEATHER SUCH
AS PRECIPITATION OR FOG.

IAZ001>003-012>014-020>022-031>034-043>046-011800-
   NORTHWEST IOWA

CITY           SKY/WX    TMP DP  RH WIND       PRES   REMARKS
CARROLL *      SUNNY     77  34  20 S30G40    29.74F
CHEROKEE *     SUNNY     73  39  29 S26G32    29.68F
DENISON *      SUNNY     75  36  23 S23G40    29.71F
LE MARS *      SUNNY     75  43  31 S33G44    29.62F
ORANGE CITY *  SUNNY     75  37  25 S28G41    29.63F
SHELDON *      SUNNY     73  41  31 S32G43    29.62F
SIOUX CITY     SUNNY     76  42  29 S23G32    29.67F
SPENCER        SUNNY     76  38  25 S33G45    29.66F
STORM LAKE *   SUNNY     75  36  23 S39G48    29.70F
$$

IAZ055>058-069>071-079>083-090>094-011800-
   SOUTHWEST IOWA

CITY           SKY/WX    TMP DP  RH WIND       PRES   REMARKS
ATLANTIC *     SUNNY     75  37  25 S29       29.77F
AUDUBON *      SUNNY     75  28  17 S22G30    29.78F
CLARINDA *     SUNNY     77  43  29 S20G28    29.81F
COUNCIL BLFS * SUNNY     75  45  33 S21G32    29.75F
CRESTON *      SUNNY     73  43  33 S23G31    29.82F
HARLAN  *      SUNNY     75  37  25 S28G35    29.78F
LAMONI         SUNNY     72  42  34 S22G30    29.85F
RED OAK *      SUNNY     77  41  27 S25G33    29.78F
SHENANDOAH *   SUNNY     77  43  29 S28G38    29.77F
$$

IAZ047>049-059>061-072>074-084-011800-
   CENTRAL IOWA

CITY           SKY/WX    TMP DP  RH WIND       PRES   REMARKS
AMES           SUNNY     73  36  25 S25G36    29.81F
ANKENY *       SUNNY     73  37  27 S24G32    29.82F
CHARITON *     SUNNY     73  41  31 S24G32    29.86F
DES MOINES     MOSUNNY   75  37  25 S28G38    29.83F
GRINNELL*      SUNNY     75  34  22 S23G32    29.85F
KNOXVILLE *    SUNNY     73  37  27 S26G35    29.83F
MARSHALLTOWN   SUNNY     76  35  22 S26G33    29.81F
PELLA *        SUNNY     75  43  31 S24G32    29.86F
PERRY *          N/A     75  37  25 S30G36    29.78F
$$

IAZ004>006-015-016-023>025-035-036-011800-
   NORTH CENTRAL IOWA

CITY           SKY/WX    TMP DP  RH WIND       PRES   REMARKS
ALGONA *       SUNNY     75  34  22 S39G52    29.71F
CLARION *      SUNNY     75  36  23 S28G38    29.76F
ESTHERVILLE    SUNNY     74  33  22 S29G49    29.67F
FORT DODGE *   SUNNY     75  37  25 S23G39    29.76F
MASON CITY     SUNNY     73  36  25 S26G37    29.76F
FOREST CITY *  SUNNY     72  34  25 S32G38    29.74F
IOWA FALLS *     N/A     73  34  23 S28G33    29.81
$$

IAZ007>011-017>019-026>030-037>042-050>054-066-011800-
   NORTHEAST IOWA

CITY           SKY/WX    TMP DP  RH WIND       PRES   REMARKS
CEDAR RAPIDS   SUNNY     75  36  24 S16       29.88F
CHARLES CITY * SUNNY     72  37  28 S23G35    29.79F
CLINTON *      SUNNY     72  37  28 S14G21    29.96F
DECORAH *      SUNNY     66  39  37 S18G28    29.82F
DUBUQUE        SUNNY     70  35  27 S21       29.90F
MONTICELLO *   SUNNY     72  36  26 S14G23    29.89F
OELWEIN *      SUNNY     72  37  28 S22G30    29.85F
WATERLOO       SUNNY     74  35  24 S21G29    29.81F
$$

IAZ064-065-067-068-078-011800-
   EAST CENTRAL IOWA

CITY           SKY/WX    TMP DP  RH WIND       PRES   REMARKS
DAVENPORT      SUNNY     74  34  23 S16       29.93F
IOWA CITY      SUNNY     74  36  25 S17G24    29.91F
MT. PLEASANT * SUNNY     73  34  23 S22G29    29.93F
MUSCATINE *    SUNNY     75  34  22 S21       29.91F
QUAD CITIES    SUNNY     76  34  21 S10       29.92F
$$

IAZ062-063-075>077-085>089-095>099-011800-
   SOUTHEAST IOWA

CITY           SKY/WX    TMP DP  RH WIND       PRES   REMARKS
BURLINGTON     SUNNY     75  37  25 S21G26    29.93F
FAIRFIELD *    SUNNY     75  32  20 S21G30    29.90F
FORT MADISON * SUNNY     73  37  27 S17G23    29.94F
KEOKUK *       SUNNY     73  36  25 S15G25    29.93F
OSKALOOSA *      N/A     75  34  22 S25G35    29.88F
CENTERVILLE *  SUNNY     73  39  29 SE21G28   29.90F
OTTUMWA        SUNNY     75  34  22 S26G32    29.88F
WASHINGTON *   SUNNY     75  36  23 S23G30    29.90S
$$

ABBREVIATIONS USED IN REMARKS
   TC - TEMPERATURES IN CELSIUS
  WCI - WIND CHILL INDEX
   HX - HEAT INDEX
  VSB - VISIBILITY
$$



USA.gov is the U.S. government's official web portal to all federal, state and local government web resources and services.